Flag for Philippines Weather past 2 weeks in Mabalacat, Philippines

Now
88 °F

Broken clouds.


Feels Like: 90 °F
Forecast: 74 / 90 °F
Wind: 13 mph from East

Location: Clarkfield Pampanga International Airport

Current Time: Mar 27, 2015 at 1:27:59 PM

Latest Report: Mar 27, 2015 at 1:00 PM


Visibility: N/A

Pressure: 30.04 "Hg

Humidity: 49%

Dew point: 66 °F

Location of MabalacatLocation

Historic Weather in Mabalacat — Graph

°F

Mabalacat temperature yesterday

Maximum temperature yesterday: 86 °F (at 3:00 PM)
Minimum temperature yesterday: 75 °F (at 2:00 AM)
Average temperature yesterday: 79 °F

Past Weeks' High & Low Weather Summary

 TemperatureHumidityPressure
High93 °F (Mar 20, 3:00 PM)100% (Mar 20, 6:00 AM)30.15 "Hg (Mar 20, 6:00 AM)
Low70 °F (Mar 18, 4:00 AM)30% (Mar 19, 3:00 PM)29.83 "Hg (Mar 18, 3:00 PM)
Average80 °F66%29.98 "Hg
* Reported Mar 12 12:00 Noon — Mar 27 12:00 Noon, Mabalacat, Weather by CustomWeather, © 2015

Note: Actual official high and low records may vary slightly from our data, if they occured in-between our weather recording intervals... More about our weather records

Advertising

Mabalacat weather history for previous 24 hours

 ConditionsComfort  
Time TempWeatherWind HumidityBarometerVisibility
12:00 PM
Fri, Mar 27
88 °FBroken clouds.13 mph46%30.07 "HgN/A
11:00 AM86 °FBroken clouds.8 mph52%30.09 "HgN/A
10:00 AM84 °FBroken clouds.12 mph58%30.12 "HgN/A
9:00 AM82 °FScattered clouds.5 mph62%30.12 "HgN/A
8:00 AM79 °FScattered clouds.8 mph70%30.09 "Hg5 mi
7:00 AM73 °FPartly sunny.6 mph89%30.07 "Hg5 mi
6:00 AM73 °FOvercast.8 mph89%30.07 "HgN/A
5:00 AM73 °FPassing clouds.8 mph94%30.07 "HgN/A
4:00 AM73 °FPassing clouds.5 mph94%30.07 "HgN/A
3:00 AM75 °FPassing clouds.5 mph89%30.07 "HgN/A
2:00 AM75 °FOvercast.6 mph94%30.07 "HgN/A
1:00 AM73 °FOvercast.5 mph100%30.09 "Hg5 mi
12:00 AM75 °FOvercast.5 mph83%30.15 "HgN/A
11:00 PM
Thu, Mar 26
75 °FPassing clouds.7 mph83%30.12 "HgN/A
10:00 PM77 °FPassing clouds.7 mph79%30.12 "HgN/A
9:00 PM75 °FPassing clouds.7 mph83%30.12 "HgN/A
8:00 PM77 °FPassing clouds.3 mph83%30.09 "HgN/A
7:00 PM81 °FPassing clouds.3 mph70%30.09 "HgN/A
6:00 PM82 °FBroken clouds.10 mph58%30.04 "HgN/A
5:00 PM84 °FBroken clouds.12 mph51%30.04 "HgN/A
4:00 PM84 °FBroken clouds.12 mph55%30.01 "HgN/A
3:00 PM86 °FBroken clouds.16 mph49%30.04 "HgN/A
2:00 PM84 °FBroken clouds.14 mph58%30.04 "HgN/A
1:00 PM84 °FBroken clouds.9 mph62%30.07 "HgN/A
Weather by CustomWeather, © 2015

See weather overviewHow to use our weather pages